Theta_e
301 301 302 302 302 302 303 303 304 304 304 301 298 299 296 298 296 304 306 308 304 299 290 291 290 292 293 294 293 293 293 292 293 292 293 292 292 292 291 291 289 290 289 289 289 291 290 290 292 292 293 295 296 297 298 298 296 299 296 296 300 307 292 290 289 292 293 295 295 294 296 296 295 296 296 295 293 293 293 291 293 290 288 287 287 284 289
301 301 302 302 302 303 303 303 304 304 304 301 300 295 294 297 300 302 306 305 304 298 287 287 286 291 293 292 292 293 293 292 292 291 292 291 292 290 290 291 291 291 291 291 290 294 286 292 293 292 293 294 297 300 299 300 299 297 298 296 303 291 292 290 286 286 289 292 295 294 295 297 294 294 295 293 294 292 292 293 292 289 290 290 288 282 289
301 301 302 302 302 303 303 303 304 304 304 304 300 295 295 297 299 300 302 303 305 295 293 292 284 290 289 289 290 291 291 293 293 292 292 292 292 291 291 291 292 292 292 291 291 293 291 290 293 292 293 294 297 299 299 300 300 305 306 303 301 294 290 289 284 281 279 279 281 284 288 292 292 293 294 294 293 292 293 288 290 286 288 288 288 287 291
301 301 302 302 302 303 303 303 304 304 304 304 300 295 296 296 290 294 299 297 297 295 294 294 293 289 289 286 288 289 289 292 291 292 293 292 292 292 292 291 292 290 290 291 290 290 292 290 291 290 291 293 295 296 300 299 297 301 306 303 301 291 291 291 290 288 287 288 287 288 288 292 292 291 292 292 292 292 290 292 289 287 288 288 291 292 294
301 301 301 302 302 302 303 304 304 303 303 303 300 295 297 295 292 287 290 295 294 292 292 292 292 290 291 286 288 287 288 289 290 292 291 293 291 292 290 289 290 288 289 288 288 287 289 290 291 288 289 291 293 294 298 299 299 301 303 303 295 294 290 290 290 289 290 290 290 291 291 290 288 289 290 292 292 292 292 289 288 293 290 286 291 294 295
301 301 301 302 302 302 303 304 304 303 304 304 301 297 295 292 290 293 296 291 288 288 288 291 291 290 291 288 289 287 287 288 286 291 292 292 293 290 290 289 289 288 287 288 286 287 287 288 286 289 288 290 293 294 295 296 298 298 298 302 300 295 288 290 290 288 290 291 290 292 290 289 288 289 290 290 292 293 291 287 289 292 289 288 292 294 295
301 301 301 302 302 303 303 304 304 303 302 303 298 294 293 293 292 294 293 290 288 289 290 291 292 290 290 289 288 288 287 286 288 288 291 291 291 290 285 287 287 288 288 289 286 286 285 284 288 288 287 288 288 292 295 295 295 295 296 300 298 297 290 293 292 289 290 290 290 291 290 288 288 288 289 290 292 292 292 292 293 294 291 293 294 295 295
301 301 301 302 302 303 303 304 304 303 302 301 298 296 295 293 293 292 292 292 291 291 290 288 290 288 288 286 287 287 287 287 288 289 289 286 288 290 288 287 288 289 288 289 286 286 287 286 283 289 288 289 288 287 287 288 293 292 291 296 298 295 289 293 291 289 289 289 290 290 289 288 287 288 289 289 291 292 292 292 291 294 295 296 296 295 292
300 301 301 302 302 303 303 304 305 303 301 298 296 296 296 296 297 297 294 290 290 291 287 289 289 286 287 287 287 288 287 287 287 288 290 290 288 289 287 288 289 289 288 289 288 289 289 289 289 291 289 286 292 290 291 292 287 288 289 290 295 297 290 293 292 287 286 290 289 287 286 287 287 286 286 287 288 287 289 288 291 290 291 295 294 292 289
300 301 301 302 302 303 303 304 305 303 302 298 294 297 296 297 296 294 293 288 287 287 285 285 286 284 286 287 287 287 288 287 287 286 287 289 291 291 290 289 289 288 289 288 289 290 291 291 292 291 291 292 292 293 293 294 291 291 291 289 291 293 292 288 289 287 285 289 289 289 289 288 286 283 284 286 288 289 290 291 292 291 290 292 290 292 295
300 300 301 302 302 303 303 304 304 304 302 296 295 297 297 298 298 295 291 288 285 285 287 286 288 287 288 287 288 288 288 288 289 286 286 290 291 290 291 291 289 287 287 291 293 293 293 294 293 292 291 291 291 291 292 292 293 291 292 292 290 288 291 289 291 286 285 287 287 290 287 281 280 287 290 289 287 288 288 288 289 291 293 291 293 292 294
300 300 301 302 302 303 303 304 304 305 303 299 297 296 298 296 294 291 287 287 284 284 287 286 287 287 287 286 287 288 288 288 288 290 289 290 292 290 291 289 290 286 292 294 293 295 295 295 294 293 294 293 291 293 294 293 292 294 293 292 291 290 290 289 290 287 285 287 287 285 280 280 286 290 291 291 291 290 289 290 291 291 293 293 291 288 287
300 300 301 301 302 303 303 304 304 305 304 301 298 297 298 297 297 293 289 288 284 286 286 286 286 286 286 287 286 288 288 287 288 289 288 289 291 293 292 291 291 291 293 292 293 295 291 290 290 291 291 292 292 293 294 293 291 292 293 294 293 289 289 288 288 288 288 286 284 278 278 286 289 290 289 291 293 290 290 289 290 291 291 290 288 287 287
300 300 301 301 302 302 303 304 304 305 305 301 298 299 297 296 297 292 289 286 284 286 284 286 286 287 287 287 285 287 286 289 287 287 290 290 290 291 293 291 293 293 292 294 294 293 288 290 286 287 289 290 290 290 292 290 290 290 289 290 292 295 292 291 285 286 283 284 284 282 286 285 286 286 287 286 283 285 284 282 287 290 292 291 288 287 287
300 300 300 301 302 302 303 304 304 305 305 302 299 296 297 296 297 296 290 291 285 285 285 284 285 286 286 286 285 288 287 287 289 289 288 287 289 292 295 293 294 292 293 292 290 291 288 286 283 283 283 284 281 283 289 288 293 289 290 289 290 292 291 290 288 283 287 284 282 282 281 279 281 286 290 291 290 290 289 285 286 289 291 291 289 287 287
299 300 300 301 302 302 303 304 304 304 305 302 297 297 298 298 294 293 293 289 286 283 285 289 289 289 287 286 285 286 285 284 285 285 288 288 288 291 292 292 293 294 292 290 290 288 285 285 277 281 280 282 283 283 284 287 287 291 292 290 292 292 293 291 289 284 285 283 280 278 278 279 285 286 288 290 291 290 290 286 284 287 290 291 290 288 289
299 299 300 301 301 302 303 303 304 304 305 303 298 296 299 297 295 295 292 289 289 284 286 286 289 288 287 286 286 286 286 285 286 285 284 286 287 286 290 292 294 294 292 293 289 288 284 278 277 283 281 278 281 282 283 282 282 282 287 289 289 288 287 289 286 282 282 281 279 278 281 280 285 287 289 290 290 291 288 282 282 285 290 291 290 288 289
299 299 300 300 301 302 303 303 304 304 305 303 298 298 299 298 294 294 292 289 286 286 289 288 289 289 287 288 286 285 287 287 286 285 285 286 284 286 288 290 290 292 292 290 287 284 281 281 282 281 279 284 282 284 279 281 280 280 280 280 282 283 285 284 281 282 282 281 280 281 282 287 288 288 289 290 291 290 284 280 283 289 291 292 292 291 292
299 299 299 300 301 302 302 303 304 304 305 304 299 297 299 298 295 295 291 288 288 285 289 286 288 290 289 289 288 288 287 287 287 284 284 285 287 287 287 288 289 288 290 286 287 284 282 281 283 283 281 281 284 279 283 280 279 283 282 281 282 280 279 282 283 281 280 282 281 280 282 286 288 290 290 291 288 283 282 286 291 292 292 293 293 291 292
299 299 299 300 301 302 302 303 304 305 305 305 300 299 298 297 298 296 297 288 287 289 289 290 291 290 289 291 289 289 288 289 286 287 285 283 290 287 289 286 289 289 288 290 284 283 283 280 281 283 281 280 283 284 282 281 284 281 282 283 282 280 279 278 278 280 281 282 280 279 276 285 290 289 290 291 285 284 288 290 293 294 293 292 291 292 291
298 299 299 300 301 302 302 303 304 305 305 305 300 298 301 299 300 297 295 294 291 288 289 290 288 291 290 292 294 292 292 289 289 287 288 288 288 287 282 282 286 286 284 285 283 282 283 281 283 282 284 283 283 284 280 280 283 286 285 285 284 285 280 279 280 283 280 279 278 277 283 286 290 288 284 286 287 290 291 291 290 293 293 291 290 290 291
298 298 299 300 301 302 302 303 304 305 305 305 301 298 297 300 298 301 296 297 291 289 293 291 290 293 293 294 296 296 294 293 295 294 291 289 289 288 287 289 288 288 289 289 286 284 285 285 285 284 282 283 286 281 281 281 278 284 288 287 280 287 284 283 280 284 283 281 282 286 288 289 291 290 289 289 291 293 293 292 292 291 291 293 290 288 290
298 298 299 300 300 301 302 303 304 304 305 304 300 297 298 298 300 300 297 295 293 294 293 291 292 293 297 295 294 293 293 293 296 295 295 291 288 288 289 289 290 290 291 290 288 288 287 287 283 286 283 284 283 283 284 284 281 284 282 286 287 288 289 290 288 285 288 288 289 290 289 289 290 291 292 291 291 292 293 293 291 292 293 293 290 290 291
298 298 299 300 300 301 302 303 304 304 304 303 299 299 298 297 297 298 296 293 289 289 291 292 292 289 290 292 295 294 295 294 295 295 295 297 288 289 290 289 289 291 290 291 289 290 287 286 285 288 282 283 286 282 280 279 281 284 284 284 287 288 288 288 285 286 284 280 289 288 288 290 291 291 292 293 293 292 292 291 292 292 293 293 293 292 293
298 298 299 299 300 301 302 303 304 304 304 302 298 296 298 298 297 295 297 289 289 287 283 286 288 293 293 293 292 293 293 293 295 295 294 296 296 292 288 291 292 290 290 291 288 290 286 286 285 286 281 285 286 281 284 283 281 286 282 283 286 285 290 287 285 286 284 283 287 288 290 291 292 292 291 291 292 292 293 293 293 293 294 294 293 294 293
298 298 299 299 300 301 302 303 303 303 303 301 297 297 297 296 297 295 296 293 290 287 285 283 290 297 292 295 294 293 293 295 293 292 293 292 290 296 294 292 291 290 289 288 291 288 285 284 284 285 285 283 289 284 284 285 285 286 286 284 287 286 290 283 286 285 285 287 288 289 291 291 291 292 293 293 293 292 292 293 293 293 292 293 294 294 293
298 298 299 299 300 301 302 303 303 303 303 300 295 295 297 297 297 299 299 295 291 285 287 286 288 291 293 293 294 294 294 294 294 294 293 291 291 292 294 293 292 290 291 290 287 284 285 284 286 285 287 285 287 286 287 287 287 285 285 287 289 288 285 286 286 283 282 283 286 290 285 284 289 291 292 293 294 294 293 293 292 292 292 292 292 292 293
298 298 299 300 300 301 302 303 303 303 302 299 296 297 296 298 298 298 296 297 298 288 286 285 289 291 293 293 293 292 293 294 293 294 292 292 292 292 292 291 291 292 288 291 289 287 286 285 283 282 284 287 287 284 286 286 287 287 286 286 287 287 287 287 284 283 282 288 290 289 291 291 291 292 292 292 293 295 294 293 293 293 294 293 292 291 292
298 298 299 300 300 301 302 303 303 302 302 297 296 299 298 297 297 300 299 295 294 290 288 289 292 291 288 291 295 294 294 294 294 294 294 293 292 292 291 290 290 288 288 286 284 285 284 282 283 285 286 286 288 283 286 281 282 281 285 288 288 288 288 290 290 290 290 291 291 291 291 291 291 291 292 292 293 294 293 294 294 294 294 294 294 294 292
298 299 299 300 301 302 302 303 303 302 301 297 298 292 290 295 297 300 301 300 296 295 288 285 284 286 291 291 294 293 293 294 294 295 294 293 293 292 291 293 291 289 289 286 287 284 283 284 283 286 288 290 286 283 282 282 283 285 288 288 289 289 289 290 289 291 289 291 291 292 292 292 293 293 292 293 293 294 294 293 294 293 292 294 293 292 292
298 299 300 300 301 302 302 303 303 303 298 296 296 287 284 285 295 299 301 299 295 296 285 287 286 287 289 293 290 292 291 293 292 292 292 291 290 291 291 293 291 291 289 288 287 283 284 284 284 287 287 288 286 285 284 284 282 285 287 288 288 289 289 289 289 290 292 291 292 292 292 292 291 290 291 291 291 292 292 292 292 293 293 293 292 292 291
299 299 300 301 301 302 302 303 303 302 296 298 297 294 293 294 297 298 301 299 299 298 289 286 284 285 283 288 294 291 292 290 290 292 293 293 294 291 292 291 289 292 289 285 284 286 284 282 284 286 287 285 286 283 285 284 282 283 287 288 288 288 289 290 291 291 292 293 293 291 291 290 292 292 291 293 292 292 293 293 293 293 292 291 290 291 291
299 300 300 301 301 302 303 303 303 302 300 298 298 300 300 300 301 302 299 300 298 289 289 286 282 283 283 287 292 294 292 296 292 291 291 292 291 291 291 291 291 291 292 290 284 283 285 283 284 286 285 286 284 282 284 282 283 285 286 287 287 288 289 290 290 291 291 290 291 290 289 291 292 293 291 293 293 292 292 292 291 291 291 291 290 290 290
299 300 300 301 302 303 303 303 302 300 298 297 296 296 300 301 301 301 297 296 292 287 287 285 281 283 284 289 288 291 292 291 287 289 287 292 287 291 287 291 291 286 287 286 284 286 286 286 284 282 287 284 282 284 279 283 285 286 287 287 288 289 290 290 290 290 290 290 289 290 290 292 291 291 292 292 291 291 292 291 291 291 290 291 291 291 291
299 300 300 301 302 303 302 300 298 298 296 294 295 297 297 303 302 299 299 299 290 285 284 282 283 282 283 284 282 288 291 293 287 287 286 288 291 289 290 287 287 286 285 290 284 281 283 284 287 284 280 283 281 277 279 283 285 287 288 288 289 290 291 290 290 290 290 290 290 290 290 291 292 291 290 290 290 290 291 290 291 292 291 291 291 290 289
299 300 301 302 302 300 298 298 297 296 294 293 295 299 302 302 300 298 297 297 297 286 281 281 282 282 282 280 281 286 292 289 287 288 286 286 291 288 287 286 284 283 285 284 283 285 283 285 285 280 280 280 277 281 284 284 285 287 287 288 289 289 288 288 289 289 288 289 291 291 291 291 291 290 289 289 289 289 289 290 289 290 291 291 291 290 289
300 301 302 299 296 298 292 291 295 296 295 297 299 302 303 302 299 301 297 299 298 297 290 282 285 284 285 282 282 286 289 285 287 286 287 286 284 283 286 285 282 284 285 283 283 283 284 288 283 278 279 278 280 285 285 285 286 287 288 289 289 289 289 288 288 288 290 290 291 290 290 290 290 290 290 289 289 289 289 289 289 289 290 290 290 289 291
301 297 297 296 292 286 289 290 295 299 301 300 301 298 296 295 289 287 288 287 289 295 286 289 284 285 284 287 284 289 289 284 286 285 284 283 284 284 283 283 282 285 279 278 282 285 283 280 278 279 279 284 285 285 286 286 287 288 288 289 289 289 288 289 289 289 289 288 288 288 288 288 289 289 290 290 290 290 290 292 291 290 289 288 288 289 289
297 294 293 289 289 285 286 292 297 300 299 298 296 290 286 284 285 285 284 283 285 287 285 288 284 286 287 286 286 292 287 286 283 285 282 285 284 281 283 281 281 283 278 279 282 288 280 278 276 278 279 284 285 286 286 288 288 289 288 288 289 289 289 289 289 290 289 289 289 291 291 290 290 289 290 291 292 290 290 289 290 290 290 290 290 289 289
296 295 288 285 286 290 295 296 296 298 297 289 285 285 284 284 285 283 282 283 283 283 284 285 286 287 287 288 286 286 290 288 284 282 283 284 289 282 280 282 280 280 273 275 280 285 281 275 273 276 278 283 285 287 287 287 288 289 288 289 289 289 288 290 291 290 290 290 289 289 289 290 291 293 293 293 293 291 290 290 290 290 290 290 289 289 289
291 289 289 287 292 292 294 295 294 292 287 284 284 282 282 282 283 282 281 279 280 283 284 286 287 287 286 286 289 285 289 291 286 286 286 283 285 285 282 278 280 278 272 276 281 280 278 275 274 277 280 284 285 287 286 288 289 289 289 289 289 289 289 289 290 290 291 292 291 290 290 291 291 291 292 293 292 291 289 290 291 290 290 290 289 289 290
292 293 292 293 292 293 293 292 286 285 284 283 281 278 278 281 283 282 282 281 281 282 286 287 285 286 286 288 287 289 287 287 286 284 284 281 284 282 277 278 279 276 273 280 281 277 279 273 273 276 282 285 286 286 287 289 288 290 290 290 289 289 289 291 292 291 290 291 291 291 292 292 292 291 291 291 291 292 292 293 293 292 292 291 290 290 289
296 295 294 292 288 286 284 284 284 283 278 278 275 276 278 278 280 280 281 281 282 285 285 289 287 289 289 290 289 289 288 289 288 285 284 281 283 282 279 276 275 273 278 282 279 275 272 268 270 279 285 286 287 288 288 289 289 288 289 289 289 289 289 291 291 291 290 290 291 291 291 292 292 292 291 291 291 291 292 292 292 293 292 291 291 290 289
296 295 289 283 285 285 285 278 284 283 278 274 275 274 275 276 278 279 278 282 285 285 287 287 287 288 284 287 287 286 286 288 286 283 282 280 281 277 275 274 276 280 282 277 276 275 275 274 279 284 286 286 288 287 288 289 289 289 289 289 288 289 290 291 292 292 292 291 291 291 292 292 292 293 292 291 292 292 292 293 292 291 290 290 290 289 289
288 284 280 281 279 281 282 274 279 278 275 276 277 276 276 278 277 276 283 283 288 287 286 287 288 288 285 286 286 285 285 285 285 284 279 280 278 277 276 276 278 276 277 273 272 273 275 276 283 284 285 286 287 288 288 289 288 288 288 290 291 291 291 292 292 291 291 291 290 291 292 292 292 292 293 293 293 292 292 292 292 290 290 290 290 289 288
282 281 277 276 274 277 277 274 274 277 278 279 279 281 282 283 283 284 286 286 286 286 288 287 287 287 284 285 284 284 282 283 283 281 279 278 277 275 279 279 279 275 270 270 270 273 276 281 283 285 287 287 288 288 288 289 288 287 288 290 290 291 291 291 291 291 292 292 291 290 291 291 291 292 293 293 293 293 293 292 291 290 290 291 291 291 289
284 282 278 277 274 277 279 276 276 279 282 283 284 283 286 285 285 286 285 285 288 287 287 286 288 289 286 284 285 284 283 281 281 280 281 278 276 279 280 278 272 269 270 268 268 271 276 282 284 286 287 288 288 288 289 289 289 289 290 290 290 291 290 290 290 291 292 290 291 291 291 291 291 291 291 292 293 294 292 292 291 291 291 293 292 290 289
282 281 280 276 274 277 278 280 282 283 283 283 284 284 285 286 287 287 286 286 287 288 289 288 286 286 285 285 287 282 281 281 281 281 281 280 280 275 271 270 268 269 269 273 275 278 282 285 286 287 288 287 288 289 290 291 290 290 291 291 290 290 291 290 291 291 290 290 291 291 291 291 291 291 291 292 291 293 293 293 292 291 290 290 290 290 290
283 280 278 276 277 277 280 282 284 284 284 285 285 286 287 287 286 286 286 287 288 287 287 289 284 284 282 281 280 281 281 281 278 277 280 277 273 271 270 268 267 272 274 276 281 282 284 287 288 287 288 287 288 289 290 290 290 290 290 291 291 291 289 290 290 290 289 289 290 290 291 291 290 291 291 291 291 293 293 292 293 293 291 290 290 290 290
283 281 281 278 280 281 283 284 285 283 285 285 286 285 286 287 286 287 287 288 286 286 287 286 286 284 280 281 278 277 279 280 280 278 275 272 271 268 269 269 269 273 278 280 281 284 287 287 287 288 288 288 288 289 290 291 287 289 290 290 290 289 290 290 291 291 290 290 290 290 290 290 291 291 292 292 292 291 292 293 293 293 293 292 291 291 291
283 282 281 282 281 280 283 281 282 280 282 284 284 285 286 287 287 287 287 287 287 286 285 283 281 280 279 277 274 273 277 280 279 276 276 275 274 274 274 273 276 279 283 286 286 287 288 288 288 290 288 289 290 289 289 290 290 290 290 290 290 290 290 290 290 290 291 290 290 286 290 292 292 291 291 290 290 290 292 292 293 293 293 293 292 292 292
279 281 283 282 282 283 285 285 285 285 286 286 287 286 287 288 287 288 286 288 287 286 282 281 281 278 274 275 276 279 281 278 275 275 275 277 277 276 273 278 282 284 285 286 287 287 286 287 287 287 290 290 290 290 290 289 289 290 290 290 290 290 291 291 291 291 291 291 291 291 291 291 290 290 290 289 290 291 292 293 293 292 292 293 294 293 292
Wind_Speed
14 14 14 15 16 16 16 16 15 12 13 6 5 4 1 3 3 2 4 5 2 3 3 1 1 1 1 3 2 2 1 2 1 2 2 2 1 1 1 2 2 2 2 1 2 2 2 2 1 1 1 1 3 4 6 2 4 1 2 2 1 1 1 2 2 2 3 4 1 3 1 3 3 4 3 1 2 1 3 3 2 4 4 3 1 2 1
14 14 14 15 16 16 16 16 14 13 9 5 5 2 2 2 3 3 1 1 2 1 1 1 1 1 2 1 2 1 2 1 3 1 2 1 2 1 2 1 1 2 0 2 2 2 1 2 2 0 1 2 1 5 8 8 2 2 3 2 2 1 1 0 2 0 1 1 3 1 1 2 3 1 3 2 1 1 1 3 1 1 4 1 3 5 1
14 14 14 16 17 17 16 16 15 13 11 8 2 1 0 3 1 2 1 3 1 0 2 2 0 1 2 3 4 5 0 2 2 2 2 1 1 0 1 1 3 2 1 1 1 1 3 2 4 2 2 3 3 7 9 10 9 8 5 2 5 3 1 2 3 4 4 3 3 4 2 1 3 1 4 6 6 5 2 3 3 4 2 3 3 1 1
14 14 15 16 17 17 17 16 14 15 14 3 5 2 1 2 3 3 2 4 3 3 1 1 2 2 0 1 2 0 3 0 2 2 2 1 1 1 3 1 1 3 4 3 4 3 1 2 3 4 4 4 3 4 8 8 8 17 9 5 3 3 2 2 3 4 5 1 1 1 1 2 2 4 7 8 6 5 1 1 2 5 4 4 2 1 5
14 14 15 16 17 17 17 16 14 16 10 8 5 2 1 1 3 2 1 1 4 1 2 1 1 1 2 1 1 3 3 3 3 1 0 2 2 1 4 3 2 3 3 3 1 2 2 2 1 5 4 3 4 6 6 5 10 22 10 4 3 4 4 1 6 5 1 1 4 2 3 2 2 4 6 7 10 5 1 2 1 3 6 3 3 4 6
14 14 15 16 17 17 17 16 13 14 7 9 2 1 2 1 1 2 0 2 1 2 0 1 4 2 1 1 0 2 3 4 2 3 1 2 2 1 1 6 4 1 2 1 1 5 2 4 2 4 2 3 5 1 4 4 7 15 9 5 1 4 2 4 3 3 3 1 1 2 7 6 5 6 8 9 9 10 6 3 3 6 1 1 4 6 3
14 14 16 17 17 17 17 16 14 9 6 2 2 0 1 1 2 1 2 2 0 1 2 3 5 5 1 1 2 1 3 3 1 1 3 3 3 4 1 5 5 2 2 1 2 3 1 1 1 3 6 3 4 3 1 4 7 7 6 5 1 3 2 4 4 7 4 4 4 0 8 5 6 10 10 7 8 9 8 7 7 5 3 3 6 8 6
14 15 16 17 17 17 17 17 13 5 2 2 2 1 2 3 2 2 4 6 4 2 2 2 2 3 3 1 2 1 0 3 4 1 1 1 2 2 2 4 4 1 2 1 3 2 3 2 1 1 4 4 0 1 2 2 4 6 4 6 3 2 2 4 3 2 3 5 5 5 3 3 8 10 12 10 7 7 9 6 7 5 5 5 6 7 5
14 15 16 17 17 17 17 15 13 5 4 1 1 1 0 0 0 2 6 3 3 1 3 2 2 2 2 2 0 1 1 1 1 3 1 1 1 2 2 2 1 1 1 2 3 2 1 3 6 6 3 3 3 2 3 2 4 4 3 4 7 4 2 1 1 3 2 2 5 2 2 3 7 10 13 12 10 6 6 3 5 3 1 4 4 4 2
14 14 16 17 17 17 17 16 13 7 2 2 1 1 0 1 1 1 4 3 3 1 1 1 1 1 1 1 1 0 2 2 2 0 0 1 2 1 2 1 1 1 2 1 1 2 4 7 7 5 6 6 4 3 3 4 3 2 2 1 3 4 4 4 3 3 2 2 1 2 3 2 1 6 8 8 4 4 5 2 4 4 5 3 2 2 3
13 14 15 16 17 18 17 16 14 8 1 1 1 1 1 1 2 2 4 4 1 2 1 1 2 1 1 0 1 1 2 3 1 1 1 2 1 1 2 3 1 1 2 1 1 2 6 6 4 3 5 5 5 3 2 3 5 5 2 2 0 2 2 1 2 2 1 2 2 2 3 4 1 1 5 5 4 7 5 3 5 7 4 2 4 6 6
12 13 15 17 17 18 17 16 15 10 4 1 1 1 1 2 3 4 2 3 1 0 0 1 1 1 2 1 1 1 1 3 2 1 3 2 3 1 2 1 2 1 0 2 1 2 2 3 1 1 2 0 2 2 2 6 6 2 3 2 1 2 4 1 0 2 2 0 1 1 1 2 2 3 4 6 2 7 4 5 6 7 6 5 8 9 10
13 14 15 16 17 18 18 17 15 14 7 2 2 1 1 1 1 2 4 4 2 1 1 2 1 1 1 1 1 3 3 3 3 3 3 3 3 2 3 2 2 2 2 5 2 2 2 2 2 4 2 2 1 4 2 9 9 6 6 0 3 3 2 2 2 2 2 2 0 1 2 2 1 3 5 8 1 8 3 2 7 8 6 6 8 8 10
13 15 15 16 17 18 18 17 17 15 12 3 2 2 0 1 1 2 2 4 1 1 1 1 1 1 0 1 0 5 1 1 2 2 2 3 4 4 3 2 2 2 2 2 2 4 3 1 1 1 2 2 1 0 2 1 1 6 8 7 3 5 2 1 2 2 2 2 3 4 3 4 6 3 7 7 4 7 4 3 4 8 6 4 8 9 9
13 15 16 17 18 18 18 18 17 16 14 3 3 0 1 1 2 1 2 4 3 1 1 1 1 1 2 0 1 3 3 4 4 1 1 0 3 4 3 2 2 4 2 3 1 2 1 2 2 2 1 1 3 1 2 2 0 4 7 7 3 4 3 1 1 1 1 4 4 2 1 1 4 3 4 3 4 5 4 2 2 5 6 4 8 12 11
14 15 15 17 18 19 19 19 18 17 15 7 2 1 1 1 2 3 3 4 5 2 1 2 2 3 2 1 0 3 1 1 1 3 3 1 3 5 2 3 3 2 3 4 2 2 1 1 0 1 1 0 1 0 1 4 3 1 3 4 4 7 7 3 1 3 1 2 3 2 2 2 2 10 9 6 4 5 2 3 1 5 5 4 5 8 10
14 15 16 17 18 18 19 19 18 17 15 9 1 0 0 3 3 2 4 4 5 1 1 1 3 3 2 1 1 1 1 1 2 1 1 2 3 4 7 4 1 1 2 2 2 1 2 4 0 0 1 0 1 1 0 1 3 5 13 8 9 10 7 2 5 5 3 4 4 4 3 3 7 11 10 9 6 3 2 2 3 5 4 5 4 6 7
14 15 16 16 17 18 19 19 19 18 15 9 2 1 2 1 3 2 5 5 5 3 1 7 1 2 3 1 1 0 1 1 1 1 1 2 2 3 5 6 5 2 2 1 0 3 3 1 2 2 2 3 0 4 1 2 3 3 3 5 4 5 5 7 5 3 4 6 4 3 3 2 7 11 12 8 1 3 1 3 3 4 3 6 5 4 2
13 14 16 17 17 18 19 19 20 19 18 13 0 1 2 3 1 2 8 4 4 3 3 2 2 3 2 2 3 2 1 1 1 0 2 0 1 2 3 2 1 2 4 2 1 2 1 2 1 2 2 1 2 2 1 2 2 3 1 2 2 4 2 1 2 5 4 2 5 5 3 1 8 10 9 4 2 1 3 4 3 2 6 6 5 5 5
13 14 15 16 17 18 19 19 19 19 18 18 5 3 1 2 2 2 4 7 3 6 1 1 2 3 3 3 4 2 1 0 1 1 2 1 1 2 2 0 2 1 0 1 2 1 1 2 1 1 3 1 2 2 3 3 1 3 3 2 3 3 2 2 3 2 1 2 4 2 4 2 12 16 4 6 3 3 2 3 4 5 7 7 8 7 7
13 14 15 15 17 18 18 18 19 18 18 17 5 1 2 3 4 4 4 8 7 6 3 2 0 3 4 3 4 6 4 3 1 2 1 3 1 1 2 1 2 2 1 2 2 1 1 1 1 2 1 0 1 2 2 2 5 5 4 4 6 3 1 2 2 3 3 5 4 4 2 7 10 9 5 5 3 5 4 2 5 6 6 7 8 9 8
13 14 15 15 16 17 18 18 18 18 18 17 6 3 4 4 3 4 2 5 5 3 4 1 1 1 4 1 3 5 1 3 3 4 1 1 1 2 1 1 1 1 1 2 2 2 1 2 1 2 2 2 1 3 2 2 5 4 3 2 4 10 6 3 5 3 3 3 3 3 3 4 5 5 3 3 4 4 3 4 5 7 7 7 9 9 8
12 13 14 15 16 17 17 17 17 17 17 16 7 4 3 3 4 5 1 7 2 2 3 3 0 1 0 1 2 3 1 1 2 2 4 1 0 1 0 1 0 1 1 1 1 3 2 2 3 2 5 5 3 5 8 5 4 4 6 7 5 2 3 0 6 8 8 10 6 3 5 6 6 6 4 5 5 6 5 6 7 8 8 6 8 8 9
11 13 14 15 16 16 17 17 17 16 17 14 5 2 3 2 3 3 6 6 3 4 4 5 4 2 3 5 4 3 1 2 2 3 1 2 0 0 0 1 1 1 0 1 1 0 2 2 2 0 5 1 0 3 3 6 4 1 2 3 4 4 1 2 3 1 1 5 6 7 6 5 7 7 8 8 8 7 7 9 9 11 11 10 9 9 9
11 12 14 14 16 16 16 16 16 16 16 13 4 2 2 3 3 3 2 1 2 2 3 2 2 3 4 4 4 2 3 1 1 1 2 3 2 2 2 1 1 1 2 1 2 3 2 3 2 2 6 2 2 3 3 3 3 2 4 3 0 4 2 6 5 5 4 5 2 4 3 5 6 5 6 8 9 10 9 9 10 10 9 9 9 9 8
11 12 14 14 15 15 16 15 15 15 14 13 7 4 5 2 2 1 6 6 4 3 4 2 2 3 3 3 5 4 3 5 3 5 7 2 1 1 7 4 3 3 3 2 1 3 2 4 3 1 6 3 3 3 5 4 5 1 6 4 3 2 3 2 2 5 5 4 4 4 8 8 7 6 6 6 6 8 10 11 12 11 11 9 7 7 7
11 12 13 14 15 15 15 15 14 14 13 10 4 4 4 3 2 3 2 3 5 3 2 3 2 5 4 6 2 4 4 5 2 7 9 9 7 5 5 4 5 3 3 4 3 3 3 2 3 5 4 4 1 3 1 3 3 3 5 4 3 1 7 1 1 6 3 3 5 5 3 4 3 4 4 4 4 8 10 10 10 10 10 9 10 6 5
11 11 13 14 15 15 14 14 13 12 10 5 3 5 3 5 4 2 1 1 1 3 4 1 3 1 3 3 5 2 5 4 5 8 7 7 9 8 7 4 3 3 3 2 3 4 3 7 6 0 1 2 2 5 2 2 2 6 9 6 4 5 2 1 4 4 6 3 4 0 3 6 3 4 2 2 3 2 9 9 9 7 8 10 10 9 7
10 11 13 14 14 14 14 13 12 11 9 3 1 1 2 2 1 2 3 0 4 7 4 1 1 3 3 1 7 5 4 6 8 8 9 9 10 9 8 8 7 2 4 5 3 2 3 2 1 2 2 1 2 2 1 5 4 7 5 5 3 3 1 3 4 5 5 3 4 2 1 5 4 1 1 2 2 2 5 4 5 6 6 5 6 6 8
10 12 14 14 14 14 14 12 10 10 8 1 2 4 3 1 1 4 4 2 1 4 3 2 3 0 3 3 6 5 6 6 7 10 12 9 9 7 6 6 6 3 5 3 1 4 1 2 1 1 2 3 1 2 2 1 5 5 3 3 4 2 1 1 3 3 5 2 3 1 3 6 4 4 2 2 2 2 3 4 4 5 4 3 5 4 3
11 13 14 14 14 14 13 11 10 9 5 2 2 1 2 2 1 2 5 3 1 4 3 2 2 1 1 1 0 9 8 6 6 6 6 4 4 5 2 2 4 3 4 2 3 1 0 3 1 2 0 4 2 3 3 3 5 5 5 5 4 5 5 4 2 1 4 5 5 4 4 4 2 3 2 2 3 3 3 2 1 1 3 4 3 4 4
12 14 14 14 14 13 12 11 9 7 2 3 3 2 2 1 1 6 5 1 2 3 3 2 1 2 1 3 3 2 3 3 2 3 3 4 4 4 6 6 3 4 3 3 1 1 2 1 1 2 3 5 3 3 2 5 7 4 5 5 5 4 3 4 5 5 5 4 6 8 4 2 2 1 2 4 4 2 3 3 2 3 4 4 4 4 3
13 13 14 14 14 13 11 9 7 3 2 1 0 2 1 3 6 5 2 2 4 3 2 3 2 1 1 1 4 3 5 2 6 4 4 4 4 4 3 3 1 4 3 3 4 2 1 0 0 3 3 2 2 2 4 3 3 3 4 4 4 4 5 4 4 3 3 4 4 1 3 5 5 2 1 3 3 3 4 4 3 3 3 4 5 5 4
13 14 14 14 13 11 9 8 4 0 1 2 3 4 3 5 4 2 1 5 5 1 2 2 1 1 0 3 3 3 5 3 2 3 2 4 1 2 2 4 5 3 7 4 1 0 0 1 4 1 2 4 2 2 3 4 3 3 3 3 4 3 3 5 4 2 3 4 2 2 3 1 4 4 5 4 4 3 3 3 4 4 3 2 3 3 3
14 14 14 13 11 8 6 4 2 3 3 1 1 2 4 8 3 3 2 1 1 2 2 2 1 2 1 2 2 2 3 3 3 3 2 2 3 3 2 3 3 3 2 0 3 2 2 2 2 1 2 4 2 3 1 2 3 3 3 5 5 3 3 4 3 2 2 2 1 2 2 4 5 4 4 3 2 1 3 3 2 2 3 3 3 3 3
14 14 12 9 6 3 2 1 4 2 3 1 1 2 6 4 3 2 3 4 3 4 2 0 1 1 1 2 1 0 3 3 1 1 1 1 2 3 3 2 4 2 2 3 2 2 2 4 1 2 2 2 2 0 1 1 2 3 4 4 2 2 2 3 4 3 2 1 3 3 4 4 5 5 3 3 3 2 1 2 2 2 3 3 3 2 2
13 11 6 2 2 1 4 1 2 1 1 3 5 8 7 2 2 1 3 3 4 4 4 3 3 1 1 1 1 2 1 2 3 3 5 3 1 2 3 3 2 1 1 3 3 3 2 2 3 3 3 2 1 2 3 3 2 3 4 2 2 1 1 1 1 2 2 3 3 3 2 3 4 3 3 3 3 3 1 3 3 3 5 4 2 3 5
6 3 1 1 2 2 1 0 0 2 5 7 4 1 5 6 1 2 3 3 3 3 3 3 3 1 1 0 2 2 1 1 2 1 1 0 0 2 1 2 0 0 2 1 2 0 1 5 3 2 2 1 2 3 2 1 2 2 2 2 2 2 1 1 3 2 2 2 2 1 2 1 1 1 2 4 4 5 5 5 5 5 4 4 4 3 3
4 1 3 3 3 1 2 1 3 6 1 0 2 1 1 1 1 1 1 1 2 2 2 2 1 0 1 3 2 1 3 1 1 2 2 2 0 1 1 2 1 1 1 0 1 2 1 2 2 1 2 2 2 3 2 1 2 1 2 2 2 2 1 0 2 1 2 3 3 3 3 2 3 2 2 2 2 0 2 1 3 4 5 5 5 4 4
0 1 1 1 1 1 3 3 5 1 2 0 2 2 1 2 2 1 1 2 1 1 1 2 0 1 2 1 3 3 2 2 1 1 1 1 2 1 0 1 0 2 1 1 0 3 2 1 1 1 2 0 2 1 2 2 1 0 1 2 2 2 1 1 1 1 2 3 2 3 3 3 3 2 3 2 2 2 2 2 3 3 3 5 5 5 6
2 3 1 1 2 1 2 3 2 3 2 1 1 2 1 1 1 0 1 2 1 0 1 2 1 1 1 1 0 2 1 3 2 2 2 2 1 1 2 1 0 2 0 1 0 1 2 2 1 1 3 1 1 0 2 1 1 3 2 3 3 2 1 1 1 2 2 3 3 2 2 1 1 2 3 1 1 1 3 3 3 4 4 3 4 5 4
1 1 1 3 1 0 1 2 3 1 2 1 2 1 1 1 1 1 1 2 1 0 2 1 1 2 3 3 2 2 1 1 1 1 1 1 1 1 1 0 1 2 1 0 1 1 2 1 1 1 1 2 2 3 2 1 1 1 2 3 3 2 1 1 4 4 3 3 2 3 2 2 3 2 1 1 1 2 3 2 2 1 1 1 2 2 3
3 2 1 2 2 2 1 2 2 1 1 1 2 1 2 2 0 1 0 0 1 0 1 2 1 0 1 1 1 2 1 1 1 1 2 1 0 1 2 1 1 2 0 1 0 2 2 2 3 2 2 1 2 1 0 1 0 1 2 2 2 2 1 2 3 3 2 3 3 3 2 2 2 2 2 2 1 2 2 2 3 3 2 2 2 2 3
1 0 1 2 2 1 1 1 1 1 2 1 2 2 1 1 0 0 1 1 1 1 1 4 3 2 2 2 1 1 0 1 2 2 2 0 1 1 2 1 1 1 1 2 2 1 1 1 2 3 2 1 0 2 2 2 1 1 1 2 2 1 0 1 2 2 2 0 0 1 1 1 2 1 0 1 3 4 4 4 3 3 2 2 2 1 1
2 2 2 1 1 1 1 1 2 2 2 1 1 1 3 3 3 2 2 1 0 3 2 2 3 4 3 1 1 1 1 1 1 2 0 0 2 1 1 1 1 2 1 1 1 0 1 1 1 2 2 2 3 3 2 1 1 2 1 2 1 3 3 3 3 2 2 2 2 2 2 2 2 3 3 3 2 1 2 5 4 3 2 2 1 2 2
1 2 2 3 1 2 1 0 1 0 1 2 2 5 4 2 4 4 1 1 3 3 4 3 4 4 3 2 1 1 1 1 2 1 0 1 2 1 0 0 1 2 1 1 1 2 2 1 2 2 2 3 2 1 1 0 0 1 2 1 1 2 2 2 2 3 3 3 2 2 2 2 2 3 4 4 4 3 2 3 3 3 1 1 1 1 2
2 1 2 2 2 1 0 1 1 1 0 2 1 2 1 5 3 3 2 0 3 4 5 1 3 1 3 0 0 0 2 1 2 0 0 1 1 1 0 0 0 0 3 1 1 2 2 2 1 2 2 2 1 1 2 1 2 2 2 0 1 3 3 3 3 4 3 3 3 2 2 2 2 2 2 4 4 3 1 1 3 3 2 2 1 2 3
1 1 1 1 2 1 1 1 0 1 0 1 1 1 1 2 4 4 2 1 3 2 5 5 3 1 2 1 1 2 0 0 2 1 0 1 0 2 1 2 0 1 1 2 2 2 1 2 3 2 3 3 3 2 1 0 1 1 1 1 1 2 2 3 3 3 2 3 4 4 3 2 2 2 3 4 5 5 3 2 1 1 2 1 1 2 3
3 1 1 2 1 1 0 0 2 3 3 2 1 2 3 6 5 4 1 1 2 3 1 2 2 2 1 1 1 0 1 1 2 0 0 1 1 1 1 1 0 0 2 3 0 1 2 3 3 2 2 2 1 1 1 1 1 1 0 1 2 1 2 3 3 3 3 2 2 3 3 2 2 2 2 3 4 5 2 2 2 1 1 2 3 3 3
1 1 2 2 2 2 1 0 3 3 1 2 2 3 2 6 5 2 1 2 1 3 1 3 2 3 0 0 1 2 0 0 1 0 2 1 1 1 2 1 2 2 2 2 2 1 1 1 2 3 2 1 2 2 1 0 1 1 1 1 1 1 2 2 3 2 2 2 3 2 3 2 2 2 3 4 4 4 4 4 2 2 2 2 3 3 4
1 2 0 1 1 3 5 5 6 6 3 3 3 2 2 4 3 3 1 3 3 3 3 1 0 1 1 2 2 1 0 0 1 1 0 1 1 1 1 1 2 3 1 1 1 0 1 2 2 1 2 2 1 1 2 1 1 1 1 1 2 1 1 1 3 3 2 1 2 2 3 3 2 3 3 3 3 3 4 5 4 3 3 3 3 4 4
1 1 0 0 1 2 3 4 5 3 3 4 3 1 1 3 1 2 1 2 3 2 1 0 1 2 2 1 1 0 0 2 1 0 1 0 2 1 2 2 2 3 2 2 2 1 1 1 2 3 3 2 2 2 1 1 1 1 1 1 1 1 2 2 2 1 2 2 2 2 3 3 3 2 2 2 2 2 3 4 2 1 2 3 3 3 3
Wind_Direction
333 333 337 339 338 336 337 336 335 337 332 349 352 313 265 55 91 6 155 182 279 72 59 313 54 21 332 310 249 260 273 250 300 333 348 331 133 317 222 242 228 212 253 30 296 343 299 318 34 335 203 141 3 333 340 327 294 130 78 20 154 153 66 139 289 330 279 264 233 153 143 193 160 79 69 4 216 331 274 263 166 174 131 192 158 240 97
333 337 340 340 340 340 338 337 334 333 338 331 317 348 87 92 106 86 114 233 267 23 90 47 326 313 303 55 289 245 256 284 334 316 324 328 337 0 307 336 144 322 127 213 283 354 299 61 32 188 335 88 35 347 13 21 347 343 198 140 241 174 281 213 52 208 13 176 198 182 143 100 46 19 27 351 283 153 87 94 159 200 195 259 200 242 161
335 339 341 342 342 341 340 339 333 328 327 303 243 250 227 111 66 52 10 10 326 320 175 147 171 39 353 336 24 355 146 209 261 277 335 350 237 235 298 302 302 302 342 309 294 9 34 287 59 357 318 331 344 344 25 30 30 350 298 182 152 119 184 173 225 214 212 192 200 219 205 44 328 46 3 34 29 16 218 194 170 237 129 181 208 199 56
335 339 341 342 342 343 342 340 331 331 324 209 164 195 173 139 123 310 68 8 43 84 20 59 132 104 153 33 9 105 346 46 336 185 257 291 329 131 279 5 145 29 345 5 24 26 45 16 4 15 347 336 359 352 337 46 20 345 340 14 100 101 88 83 170 242 256 356 8 55 333 292 196 340 23 6 4 358 285 8 171 224 147 200 196 30 148
334 337 340 342 345 345 345 344 340 345 339 178 148 137 288 122 107 150 175 342 26 45 358 147 102 104 184 101 307 9 343 286 314 139 12 35 18 64 33 351 29 351 20 11 15 27 303 24 106 21 351 313 297 321 317 34 17 351 318 318 84 92 95 94 95 73 73 322 257 303 315 109 43 18 0 10 15 354 290 257 308 21 133 228 110 169 155
336 340 342 345 347 348 348 348 352 4 24 139 307 112 357 130 224 105 296 134 176 120 24 70 95 65 317 48 260 17 358 18 24 326 94 297 7 221 197 49 60 66 48 273 21 347 19 21 14 323 32 301 328 324 12 34 24 356 313 313 199 130 126 187 107 110 118 185 296 100 92 70 82 61 36 28 16 31 52 20 340 337 289 332 129 160 148
340 343 344 345 347 350 351 352 1 16 352 34 312 113 326 40 124 131 304 156 315 100 111 112 112 93 35 114 19 65 42 29 310 247 322 19 18 7 54 3 16 17 288 124 55 358 47 20 10 26 335 20 319 3 42 116 50 6 307 329 0 116 79 156 153 124 96 54 49 294 122 119 60 47 46 38 44 53 57 52 23 17 14 45 128 132 93
341 342 343 345 349 353 355 355 2 13 312 339 286 237 136 183 136 153 9 71 100 58 77 112 88 64 347 71 344 140 155 356 340 141 198 19 11 329 54 344 357 20 336 71 76 36 54 49 322 13 345 325 164 325 222 279 335 15 335 311 310 286 155 164 165 118 89 36 44 33 47 110 83 48 40 31 39 68 40 40 9 3 86 96 130 131 91
341 342 342 345 350 354 356 356 0 33 175 267 218 245 21 117 87 157 128 89 3 51 17 77 88 117 350 73 153 234 205 337 307 284 307 62 71 353 22 327 72 120 43 71 123 169 235 238 247 274 270 284 48 345 337 117 296 345 1 2 322 342 123 135 170 149 132 66 38 34 90 106 92 46 27 21 16 34 358 13 12 329 21 138 136 157 118
341 342 342 347 351 354 357 357 0 22 201 212 220 82 148 124 88 94 104 99 340 38 102 49 107 93 218 194 272 268 7 307 301 1 1 262 252 210 281 230 185 335 354 51 272 228 250 265 266 254 258 272 285 260 260 233 277 318 310 246 36 353 137 161 171 174 163 90 180 141 194 184 224 28 353 341 345 336 313 273 8 15 310 211 177 25 61
339 342 345 349 351 354 356 359 359 13 14 216 217 252 115 160 176 47 50 97 341 70 67 40 102 86 125 235 235 218 280 337 302 98 317 356 99 42 211 178 94 333 229 126 87 248 248 266 277 226 239 238 267 314 297 251 260 242 253 55 336 89 0 37 337 184 119 4 330 238 186 221 88 348 343 332 341 351 15 10 350 351 357 56 59 44 57
341 345 348 349 350 352 354 357 358 4 14 305 212 270 238 110 59 95 89 109 146 208 164 95 109 159 93 62 239 208 260 281 325 117 253 293 299 26 111 96 107 327 91 87 314 243 202 221 160 207 163 144 194 188 91 64 45 28 228 249 130 153 139 126 321 105 122 91 224 147 172 62 157 199 6 347 353 9 355 57 33 12 28 93 80 67 70
346 349 349 349 350 351 352 354 358 1 15 152 173 299 64 49 66 116 116 110 134 218 107 149 10 14 142 330 355 226 252 280 264 256 258 240 289 294 231 231 166 290 46 339 4 150 138 79 15 300 304 46 215 253 8 39 22 23 72 112 243 189 160 146 85 71 110 132 92 180 82 55 308 166 29 356 278 3 314 196 38 16 31 45 80 92 102
347 349 348 349 349 350 351 353 358 1 10 126 184 231 117 224 104 92 113 102 51 36 315 132 31 108 61 346 242 299 294 237 301 198 209 193 221 256 291 220 269 12 344 132 93 113 92 358 68 224 145 348 346 337 350 70 90 356 25 35 307 249 119 145 99 317 133 105 81 72 123 150 55 26 11 14 356 336 355 339 8 11 9 95 118 113 113
347 349 349 348 349 349 351 353 357 1 7 33 203 210 286 185 175 134 153 90 124 112 284 90 248 223 212 23 292 359 18 328 346 158 267 28 254 232 227 296 327 329 136 195 145 15 84 109 147 165 308 213 197 196 9 18 83 71 24 24 352 294 238 176 151 40 326 133 121 117 143 67 25 26 343 4 315 305 294 247 298 26 21 93 133 129 129
348 350 348 348 349 349 350 352 356 0 6 23 116 348 314 189 120 87 111 127 131 90 83 228 180 158 115 64 21 26 20 325 342 285 307 245 262 311 274 280 312 145 89 69 42 90 34 171 250 165 184 16 340 334 78 353 3 298 61 14 27 39 46 69 84 118 121 74 100 86 92 82 36 335 328 318 325 286 193 243 64 2 351 42 132 134 139
349 348 347 347 349 348 349 350 354 359 4 12 88 146 153 167 207 165 107 54 65 100 266 46 112 100 122 138 184 94 285 347 331 348 350 344 331 295 297 321 231 270 100 87 33 142 90 73 161 49 98 269 343 53 177 37 3 339 347 359 21 38 14 4 78 54 58 103 89 92 41 29 347 334 325 324 316 138 160 208 56 345 7 99 112 126 132
348 348 347 347 348 348 348 348 351 356 1 15 147 172 55 311 142 123 64 92 114 58 7 189 64 44 52 161 30 208 159 113 92 124 253 322 311 343 336 349 350 71 198 186 294 87 77 102 107 98 43 357 344 296 67 340 51 4 345 323 357 6 22 19 62 82 86 94 101 109 96 57 351 333 321 319 62 194 275 23 352 351 61 94 96 87 30
350 348 348 348 347 348 347 347 350 353 358 2 81 278 34 44 75 119 114 84 81 112 253 167 293 130 128 89 67 127 103 47 315 77 326 16 103 312 275 289 316 348 21 118 65 69 93 90 85 41 102 355 31 26 288 32 17 326 326 6 26 45 46 45 9 35 47 33 88 94 94 41 333 328 319 302 237 10 39 356 289 244 89 65 57 65 66
350 349 349 347 347 348 347 347 348 351 356 358 3 107 256 11 338 272 121 112 85 100 212 151 177 110 214 84 71 61 184 77 10 51 121 355 271 353 191 117 158 234 286 166 69 301 87 76 90 155 63 83 64 166 77 77 60 28 40 325 41 355 46 15 32 331 163 22 86 85 39 37 11 326 299 7 24 46 337 337 40 111 97 78 61 67 76
350 351 349 348 348 348 348 347 348 348 353 356 10 108 39 339 9 16 72 116 111 100 27 288 224 154 155 149 174 143 139 35 203 352 201 256 314 336 93 222 342 15 5 12 81 86 107 129 145 95 124 58 124 208 123 164 78 76 30 53 58 319 107 114 67 354 67 49 51 55 8 313 343 1 41 338 336 313 299 276 79 64 76 79 76 67 76
351 351 350 350 349 350 349 348 347 348 352 353 7 112 64 330 4 10 5 82 88 98 131 180 33 228 217 256 203 178 165 213 224 215 233 310 71 17 103 83 76 180 60 166 100 120 64 107 167 83 92 80 64 61 239 77 67 355 25 313 79 355 52 20 88 326 44 65 74 46 28 351 359 12 6 347 346 356 355 77 80 99 88 91 88 80 65
352 351 350 350 350 350 349 347 347 349 354 356 11 84 100 331 349 349 0 72 29 81 6 17 332 347 24 220 227 240 317 307 130 104 167 210 353 180 18 20 121 221 88 281 356 75 96 108 75 105 90 36 56 89 59 51 91 359 56 1 84 12 57 2 71 77 91 78 63 83 51 29 26 46 31 40 51 42 41 66 81 83 103 97 103 99 91
350 351 349 350 349 348 348 347 348 350 356 5 19 146 91 45 325 345 47 60 97 97 34 14 75 10 293 329 321 4 132 52 320 293 191 198 59 310 188 243 168 135 97 12 331 87 122 72 99 2 85 353 243 46 89 73 40 344 69 77 59 36 16 52 83 195 266 70 26 41 35 30 44 59 61 62 64 65 72 74 77 93 99 98 100 103 97
349 350 349 348 347 347 348 348 350 351 358 3 21 77 125 64 31 14 114 99 40 87 111 339 351 262 291 275 273 295 66 292 320 21 121 140 214 84 64 37 121 0 85 101 186 87 52 100 123 78 84 342 323 81 313 105 81 303 86 43 165 97 314 74 53 55 64 101 45 43 58 71 50 49 70 73 73 80 80 89 91 91 91 96 104 101 90
347 347 347 345 345 346 347 349 351 354 358 9 24 70 70 40 317 72 62 68 85 104 99 73 36 325 308 13 22 333 329 16 4 51 50 51 64 326 136 159 86 33 94 96 172 86 98 67 77 44 98 69 298 83 65 2 104 242 74 60 4 299 284 69 320 96 92 98 79 110 97 75 65 67 67 76 96 102 102 105 107 109 107 103 98 105 117
342 346 343 344 343 343 347 347 351 352 359 12 22 33 80 112 4 33 78 163 104 34 48 99 299 311 8 45 342 344 8 341 19 59 50 34 40 41 86 98 95 35 59 60 44 106 67 85 59 70 32 80 20 63 110 104 58 66 62 34 315 120 76 164 159 95 88 95 144 180 111 110 99 90 70 65 56 105 106 106 109 114 119 124 126 125 128
338 340 342 342 340 341 344 345 346 349 355 18 39 55 17 67 8 7 104 89 114 156 142 188 115 325 267 83 27 34 6 4 40 57 57 51 51 53 62 83 101 56 18 45 64 40 40 80 79 235 86 200 104 63 345 173 211 68 51 29 337 34 114 182 78 89 104 139 129 269 73 99 101 115 84 48 353 115 121 117 120 120 127 135 134 134 136
332 336 339 339 337 336 339 341 343 342 349 15 0 34 27 74 324 33 70 91 100 93 90 112 277 10 61 330 319 352 20 31 32 47 52 41 42 40 48 49 60 118 94 71 95 91 62 75 288 50 57 312 80 87 301 64 52 63 27 359 17 352 306 351 73 93 57 50 128 168 90 124 144 153 55 57 46 96 97 101 114 129 137 137 134 138 138
326 333 335 336 334 332 335 336 340 343 340 20 43 50 44 358 343 36 16 29 93 121 98 116 86 102 286 334 340 350 341 4 15 45 42 34 33 31 16 37 44 27 66 71 79 80 47 90 54 88 19 285 101 101 69 103 80 67 4 358 20 14 13 295 311 11 95 107 141 135 87 95 98 119 108 106 115 128 119 132 137 134 137 145 129 107 87
326 329 332 332 329 329 330 334 337 345 356 72 74 56 48 72 355 68 4 28 298 103 115 95 100 285 31 72 348 359 345 343 17 35 38 43 59 23 333 160 49 355 64 45 51 82 143 39 22 41 111 25 53 83 112 104 97 90 17 353 8 20 26 19 17 335 107 115 105 101 94 94 111 119 103 124 122 135 117 127 27 42 92 115 91 109 125
323 326 327 328 326 326 327 329 338 343 7 66 93 153 173 183 272 320 338 345 276 64 78 84 41 27 335 321 346 318 334 7 5 19 36 350 24 6 34 41 71 356 65 84 114 107 41 263 70 40 39 346 31 93 76 86 91 85 355 359 359 17 21 46 62 77 80 76 112 104 97 108 234 172 127 152 138 113 119 127 96 91 85 88 85 82 90
321 323 324 323 323 324 324 327 333 8 39 180 269 87 226 280 286 296 340 276 56 62 106 78 101 183 78 52 309 355 359 11 22 9 40 4 15 343 39 15 17 63 26 84 20 70 305 78 269 68 16 314 59 67 65 55 48 344 326 320 353 5 34 64 90 94 86 43 12 45 167 192 193 154 37 112 104 122 139 138 128 120 126 130 122 121 123
318 319 320 319 318 323 325 327 343 24 25 58 48 12 347 346 324 2 79 74 97 142 67 103 85 54 16 296 84 7 8 49 18 328 73 16 301 41 23 21 8 71 356 37 267 102 10 40 40 6 291 29 358 67 65 45 350 339 356 42 21 36 58 66 67 63 356 358 342 290 298 32 88 103 107 108 101 91 111 117 143 153 147 158 145 134 147
315 315 314 316 317 320 334 359 30 46 99 346 187 246 300 332 343 322 19 133 87 358 42 21 84 102 71 28 40 335 359 52 28 348 59 15 4 37 345 55 349 59 14 237 64 38 42 34 285 60 34 293 38 53 67 20 11 14 49 54 32 26 62 66 52 348 338 348 45 67 98 125 113 85 94 89 81 79 152 158 183 175 182 201 168 163 176
311 311 310 309 320 337 346 49 40 37 32 22 294 313 334 343 28 33 24 49 84 149 88 296 52 90 115 125 88 16 319 74 0 285 29 270 34 34 51 97 75 23 272 31 56 336 39 321 293 66 292 62 52 64 38 306 320 31 57 62 9 11 354 295 291 349 343 16 72 85 83 83 107 118 116 112 103 101 114 186 215 225 242 233 205 181 204
306 308 314 347 10 44 27 224 293 102 159 224 282 306 306 259 253 59 0 43 22 64 118 157 85 139 166 155 243 278 314 101 350 16 0 30 49 315 16 43 66 308 35 27 22 36 10 309 80 68 25 62 17 332 295 278 263 40 61 30 353 355 340 299 247 182 85 51 52 62 78 116 120 139 136 127 125 133 148 239 238 237 241 259 279 229 230
307 47 55 24 43 47 41 334 334 306 304 303 322 4 6 28 77 351 358 38 312 40 16 58 79 128 305 179 68 324 51 68 315 88 82 263 81 47 0 62 17 326 71 326 30 1 347 36 34 70 79 322 303 286 310 294 256 265 291 344 0 7 8 92 151 144 80 56 86 84 83 46 112 141 173 163 179 189 208 209 195 208 228 246 242 249 272
117 71 53 47 88 163 180 216 322 328 306 179 35 74 352 354 52 24 357 288 2 32 316 58 94 255 87 73 67 335 49 87 67 26 100 347 47 86 349 92 7 81 53 61 111 279 60 39 22 32 81 347 61 52 355 330 334 316 299 314 333 330 311 258 243 358 351 313 300 260 230 192 180 160 207 200 206 129 21 166 242 237 236 237 226 211 224
34 104 113 57 87 213 260 289 337 338 72 49 341 100 88 334 87 94 300 63 15 326 334 80 306 141 285 119 138 71 330 328 84 98 99 87 330 74 228 98 309 84 49 28 32 332 118 111 313 106 125 163 105 345 352 332 275 170 345 0 321 356 0 347 12 298 274 301 301 294 301 313 301 208 180 227 263 121 173 217 223 231 219 229 229 229 226
26 86 76 121 211 282 293 295 331 44 62 41 21 16 62 44 18 161 68 61 43 91 325 95 130 119 110 153 41 104 0 76 69 70 92 59 292 112 51 80 269 76 1 94 1 56 84 89 38 128 152 165 150 331 306 242 49 7 14 17 356 342 340 330 38 18 30 34 41 36 56 53 0 334 341 354 117 189 206 212 192 195 194 190 206 224 228
180 137 161 100 109 242 323 21 50 50 28 67 112 356 289 245 273 36 55 119 153 199 75 73 84 82 48 9 64 126 78 342 95 80 102 90 349 95 117 50 352 105 155 101 92 66 72 100 123 170 213 201 241 244 241 95 16 0 21 10 347 346 338 39 55 45 27 36 31 34 29 30 27 2 312 275 264 235 234 248 301 265 241 246 242 234 212
131 67 162 57 36 7 45 56 332 93 111 19 43 48 350 75 32 122 241 301 302 103 96 335 40 66 65 223 93 16 75 267 303 23 63 79 283 54 79 41 44 88 95 27 54 64 56 131 207 178 140 168 227 216 189 219 310 289 309 330 300 278 298 40 49 32 28 37 37 31 21 6 353 335 314 262 243 269 267 256 279 289 247 234 236 224 206
119 9 42 0 70 302 68 130 274 64 16 28 106 156 207 62 265 52 74 161 138 110 187 151 174 191 90 349 47 36 30 90 56 87 75 294 65 21 52 48 48 5 348 44 32 92 114 229 213 127 131 307 300 213 211 211 151 18 274 226 233 234 228 145 56 25 37 72 327 354 279 298 308 298 273 284 289 298 305 301 291 281 287 251 236 213 172
103 12 31 32 35 281 73 278 338 117 182 229 135 151 154 170 193 189 148 213 103 135 130 77 113 99 89 356 49 57 12 129 296 90 68 17 71 25 94 126 123 26 74 88 33 31 340 197 180 217 235 187 176 184 205 197 124 206 285 305 32 20 10 28 15 345 320 19 358 337 338 342 325 322 319 315 308 262 285 301 317 283 235 206 173 156 160
81 153 86 86 8 329 93 164 354 99 282 143 187 187 169 196 140 164 185 76 116 132 127 109 93 93 83 337 98 98 357 83 69 43 91 61 91 86 77 173 69 86 44 46 75 182 202 164 158 174 171 180 152 90 51 68 234 204 220 149 7 327 354 341 336 319 301 331 350 334 316 304 301 305 307 308 299 294 291 292 268 261 232 174 176 171 154
86 17 87 109 107 267 77 129 237 202 78 206 250 184 185 137 146 82 98 279 113 125 98 50 50 40 104 49 72 71 49 32 82 310 229 49 88 114 1 172 118 73 134 190 252 247 238 206 225 214 183 182 200 224 216 182 190 186 195 247 287 324 340 334 318 306 317 315 306 312 322 318 306 281 290 304 308 307 293 256 246 224 240 287 129 143 156
111 249 90 111 203 168 131 207 178 119 101 317 355 174 75 164 123 82 21 45 114 125 104 117 109 107 78 321 34 91 10 338 99 45 26 126 103 32 19 43 40 245 212 169 205 225 166 154 173 174 179 182 196 184 191 144 157 174 201 272 301 318 333 333 318 309 310 312 312 311 310 307 313 313 316 309 303 298 309 321 312 249 245 253 209 182 193
122 118 137 161 172 132 153 77 139 77 24 22 64 91 126 99 84 96 97 66 86 72 340 88 149 98 74 324 67 68 75 0 90 179 2 39 93 169 146 180 49 91 217 204 197 174 172 160 158 169 157 166 170 183 279 282 330 0 275 292 293 300 289 286 281 294 298 282 286 292 298 306 303 288 290 288 286 293 327 326 295 248 220 234 234 232 216
71 16 45 82 70 19 353 189 70 86 80 85 57 89 64 97 100 88 227 95 87 120 99 71 60 77 38 65 55 13 61 334 110 127 71 64 150 160 80 68 231 178 138 183 222 206 185 169 129 166 170 165 149 182 207 146 158 225 251 256 263 257 267 286 298 301 293 297 298 298 299 299 291 285 288 295 301 304 301 293 281 255 223 217 228 233 239
0 102 130 263 147 177 170 155 155 148 160 156 134 143 142 111 123 129 295 121 146 75 50 85 46 85 102 40 53 82 163 189 60 42 153 156 152 127 135 176 205 204 192 151 186 127 139 156 172 148 143 165 177 195 200 209 205 255 268 275 275 291 295 261 264 286 297 290 285 294 290 291 302 297 299 296 285 285 289 280 265 253 235 224 219 228 236
54 65 102 66 328 94 115 75 34 60 108 123 118 108 115 104 190 146 257 130 72 84 138 172 112 68 70 123 205 130 91 53 50 101 90 215 187 142 200 202 150 180 173 153 168 183 197 173 184 156 150 161 177 198 183 138 193 220 222 220 249 270 274 261 265 268 300 299 279 281 295 301 306 300 300 276 267 273 271 279 289 307 271 255 240 237 241